924  
ASUS41 KOKX 201706  
RWROKX  
 
REGIONAL WEATHER ROUNDUP  
NATIONAL WEATHER SERVICE NEW YORK NY  
100 PM EDT SAT OCT 20 2018  
 
NOTE: "FAIR" INDICATES FEW OR NO CLOUDS BELOW 12,000 FEET WITH NO  
SIGNIFICANT WEATHER AND/OR S TO VISIBILITY
.  
 
NYZ071-072-176-178-NJZ106-104-201800-  
NEW YORK CITY METRO AREA  
 
CITY SKY/WX TMP DP RH WIND PRES REMARKS
 
CENTRAL PARK FAIR 59 49 69 MISG 29.72F  
BRONX LEHMAN C N/A 61 46 59 W7G18 N/A  
LAGUARDIA ARPT PTSUNNY 61 47 59 W15 29.69F  
QUEENS COLLEGE N/A 59 48 67 W15 N/A  
KENNEDY INTL PTSUNNY 61 51 70 W21 29.71F  
BREEZY POINT N/A 59 N/A N/A W8G14 N/A  
BROOKLYN COLL N/A 59 48 67 W15 N/A  
STATEN ISLAND N/A 59 50 72 W14 N/A  
NEWARK/LIBERTY PTSUNNY 60 49 66 W16G23 29.71F  
TETERBORO PTSUNNY 61 48 62 W12G24 29.69F  

 
 
NYZ177-179-078>081-201800-  
LONG ISLAND NEW YORK  
 
CITY SKY/WX TMP DP RH WIND PRES REMARKS
 
JONES BEACH N/A 59 N/A N/A W8G14 N/A  
WANTAGH N/A 59 50 72 W12 N/A  
HEMPSTEAD N/A 61 50 67 SW12 29.73F  
MATINECOCK PT N/A 61 N/A N/A W24G30 N/A  
FARMINGDALE CLOUDY 60 49 66 W12G17 29.70F  
MACARTHUR/ISP CLOUDY 60 50 69 W13 29.69F  
STONY BROOK N/A 59 50 72 NW7 N/A  
SHIRLEY CLOUDY 60 50 69 W9 29.69F  
MT SINAI HARB N/A N/A N/A N/A W10G16 N/A  
WESTHAMPTON CLOUDY 60 50 69 W15 N/A  
EAST HAMPTON CLOUDY 60 51 71 W8G18 29.67F  
SOUTHOLD N/A 59 50 72 W7G20 N/A  
MONTAUK N/A 61 52 72 W13G21 29.68F  

 
 
NYZ052-065-067-201800-  
HUDSON VALLEY  
 
CITY SKY/WX TMP DP RH WIND PRES REMARKS
 
WHITE PLAINS FAIR 59 48 67 W10 29.68F  
LARCHMONT HARB N/A 59 N/A N/A W18G24 N/A  
CROTON ON HUDS N/A 59 N/A N/A SW9 N/A  
SOMERS N/A 59 46 63 W7 N/A  
BREWSTER N/A 59 48 67 NW7 N/A  
NEWBURGH PTSUNNY 59 48 67 W14 29.68F  
MONTGOMERY PTSUNNY 62 46 55 W12G22 29.65F  
OTISVILLE N/A 59 45 58 W8 N/A  
WARWICK N/A 61 46 59 W12 N/A  
SUFFERN N/A 59 46 63 W5 N/A  
POUGHKEEPSIE CLOUDY 60 45 57 W10 29.65F  
ALBANY PTSUNNY 59 45 59 W8 29.64F  

 
 
NJZ001-105-106-008-010-013-015-019>022-104-201800-  
NEW JERSEY  
 
CITY SKY/WX TMP DP RH WIND PRES REMARKS
 
NEWARK/LIBERTY PTSUNNY 60 49 66 W16G23 29.71F  
TETERBORO PTSUNNY 61 48 62 W12G24 29.69F  
CALDWELL PTSUNNY 60 48 64 VRB7G18 29.70F  
SOMERVILLE CLOUDY 60 48 64 W8 29.70F  
LINDEN PTSUNNY 59 49 70 W9 29.72F  
PERTH AMBOY N/A 57 N/A N/A W14 N/A  
SUSSEX FAIR 62 46 55 VRB6G17 29.68F  
ANDOVER N/A 58 44 60 VRB3 29.70F  
TRENTON PTSUNNY 61 49 64 W9 29.72F  
MILLVILLE FAIR 60 56 86 W10 29.75F  
ATLANTIC CITY PTSUNNY 61 57 87 W9 29.75F  
WRIGHTSTOWN CLOUDY 63 53 71 W13G18 29.71  
TOMS RIVER PTSUNNY 62 54 74 W14G22 29.73F  
BELMAR CLOUDY 60 52 74 W9G18 29.73F  

 
 
PAZ047>061-062-071-201800-  
EASTERN PENNSYLVANIA  
 
CITY SKY/WX TMP DP RH WIND PRES REMARKS
 
PHILADELPHIA PTSUNNY 62 52 69 W12 29.74F  
ALLENTOWN PTSUNNY 60 47 61 W10 29.72F  
SCRANTON PTSUNNY 57 44 62 W22 29.70F  

 
 
CTZ002-004>006-009-010-012-RIZ004-006-007-MAZ004-011-015-201800-  
SOUTHERN NEW ENGLAND  
 
IN CT  
 
CITY SKY/WX TMP DP RH WIND PRES REMARKS
 
BRADLEY INTL PTSUNNY 62 45 53 W10 29.63F  
HARTFORD PTSUNNY 62 47 57 W8 29.64F  
DANBURY CLOUDY 58 47 66 W10 29.68F  
WTRBURY/OXFORD CLOUDY 57 48 72 W8 29.67F  
NORWALK HARBOR N/A 59 N/A N/A W16 N/A  
BRIDGEPORT FAIR 62 48 60 SW10G20 29.67F  
MERIDEN CLOUDY 60 47 61 W6 29.66F  
NEW HAVEN PTSUNNY 62 49 62 W13G18 29.66F  
CHESTER PTSUNNY 61 48 63 VRB7G15 29.66F  
GROTON CLOUDY 61 51 70 W7 29.65F  
WILLIMANTIC N/A 61 50 67 W8G20 29.65F  
 
IN RI  
 
CITY SKY/WX TMP DP RH WIND PRES REMARKS
 
PROVIDENCE CLOUDY 62 50 64 W9 29.64F  
BLOCK ISLAND FAIR 62 53 72 W18G25 29.67  
WESTERLY CLOUDY 61 52 72 SW10G20 29.66F  
 
IN MA  
 
CITY SKY/WX TMP DP RH WIND PRES REMARKS
 
BOSTON FAIR 64 47 53 W13G21 29.61F  
WORCESTER CLOUDY 56 46 69 W15 29.62F  
WESTFIELD CLOUDY 60 46 59 W8 29.62F  
PROVINCETOWN FAIR 63 54 72 W15 29.62F  
NANTUCKET CLOUDY 59 56 89 W15 29.67F  

 
 
ANZ330-335-338-340-345-350-353-355-201800-  
COASTAL MARINE OBSERVATIONS  
 
 
STATION/POSITION TIME SKY/WX TEMP WIND PRES VSBY WAVE
 
AIR SEA DIR/SP/G HT/PER  
(UTC) (F) (DEG/KT/KT) (MB) (MI) (FT/S)  
NY HARB ENTRANCE 1640 61 65 260/ 16/ 19 1006.3  
20 S FIRE ISLAND 1650 61 64 270/ 19/ 23 1005.9 8/ 8  
GREAT SOUTH BAY 1615 57 55 250/ 14/ 17 N/A  
23 SSW MONTAUK P 1650 61 64 250/ 21/ 25 1005.0 9/ 8  
15 E BARNEGAT LI 1630 67 N/A 5/ 6  
HUDSON CANYON 1650 63 280/ 19/ 23 1006.5 9/ 8  
KINGS POINT 1648 64 310/ 13/ 17 1006.5  
EXECUTION ROCKS 1630 63 250/ 16/ 21 N/A  
WESTERN LI SOUND 1550 60 270/ 16/ 25 N/A 2/ 3  
CENTRAL LI SOUND 1615 60 65 260/ 19/ 23 N/A 4/ 5  
ROBBINS REEF 1648 58 280/ 14/ 19 1006.6  

 
 
>>>>>>>>>>>>>>>>>>>>>>>>>>>> KEY <<<<<<<<<<<<<<<<<<<<<<<<<<<  
> <  
> SKY/WX - SKY CONDITION/PRESENT WEATHER <  
> TMP - TEMPERATURE IN FAHRENHEIT <  
> DP - DEW POINT IN FAHRENHEIT <  
> RH - RELATIVE HUMIDITY IN PERCENT <  
> WIND - DIRECTION (FROM) AND SPEED IN MPH <  
> PRES - MEAN SEA LEVEL PRESSURE (INCHES OF HG) <  
> WCI - WIND CHILL INDEX <  
> VSB - VISIBILITY IN MILES <  
> HX - HEAT INDEX <  
> TC - TEMPERATURE IN CELSIUS <  
> VRB - VARIABLE WIND DIRECTION <  
> <  
>>>>>>>>>>>>>>>>>>>>>>>>>>>> KEY <<<<<<<<<<<<<<<<<<<<<<<<<<<  
 
 
CLICK HERE TO GO TO PREVIOUS BULLETINS.

The Nexlab NY Page
The Nexlab NJ Page
The Nexlab CT Page Main Text Page